CAPE
0 0 0 0 0 0 0 0 0 0 0 0 0 0 0 4 0 0 198 516 600 794 1135 1110 842 720 589 482 520 481 385 843 744 711 658 513 442 110 5 8 10 9 20 86 145 23 8 10 59
0 0 0 0 0 0 0 0 0 0 0 0 0 0 0 0 57 312 505 637 811 970 1197 1076 710 557 403 367 732 677 741 904 840 686 497 618 438 48 7 4 10 13 22 132 133 80 1 2 2
0 0 0 0 4 1 0 0 0 0 0 0 0 44 2 27 513 487 804 884 1053 1077 1173 975 530 473 261 500 883 742 866 926 676 506 443 478 111 6 2 3 13 11 82 102 38 39 2 0 0
21 8 0 0 0 4 18 0 0 0 0 0 0 0 10 104 640 838 1011 1115 1058 1120 1162 853 568 390 190 636 898 863 769 661 538 420 310 90 7 3 2 5 4 42 63 53 40 0 0 0 0
20 24 0 0 0 0 23 4 0 0 0 0 0 0 0 559 996 1192 1088 1175 943 1063 1140 858 587 387 173 565 858 857 774 608 428 282 68 11 4 1 2 0 5 86 0 8 51 0 0 0 0
21 24 3 0 0 0 0 0 0 0 0 0 0 4 30 1012 624 1365 1280 1033 877 1044 1041 867 529 355 180 421 714 699 689 525 358 132 31 4 3 3 1 0 74 90 0 14 56 0 0 0 0
1 16 0 1 0 0 0 13 4 0 0 0 0 12 238 766 1027 1385 1286 993 881 988 938 812 455 253 180 115 457 484 450 388 178 50 6 4 3 3 3 55 96 73 0 0 39 0 0 0 0
16 18 12 18 0 0 0 0 8 0 0 0 45 0 78 405 1522 1367 1161 971 797 853 862 535 368 219 150 40 72 186 165 107 24 2 1 1 2 3 2 42 21 46 30 0 0 0 0 0 0
31 12 5 0 0 0 0 0 0 0 0 0 0 78 551 850 1412 1146 934 868 563 712 628 440 266 236 137 19 0 3 7 0 1 0 0 2 6 7 1 3 6 24 30 0 0 0 0 0 0
4 3 0 0 0 0 0 0 5 0 1 7 0 21 478 1439 816 625 472 588 539 629 506 426 233 116 95 25 3 3 0 2 5 1 2 13 13 11 4 7 11 6 24 0 0 0 0 0 0
2 0 0 0 0 0 29 18 4 41 12 2 1 1 365 1221 732 538 504 232 501 558 530 447 279 120 77 54 10 3 2 0 0 0 0 7 7 8 7 14 12 2 0 0 0 0 0 0 0
0 0 0 0 0 6 14 37 44 28 0 0 0 0 0 1100 1201 595 326 345 425 552 559 543 424 161 130 194 22 4 1 0 0 0 0 3 3 3 3 3 2 0 0 0 0 0 0 0 0
0 0 0 0 5 0 20 22 10 16 11 0 0 0 0 0 637 611 107 207 472 634 608 561 461 331 127 82 40 5 1 0 0 1 1 1 1 0 0 0 0 0 0 0 0 0 0 0 0
3 4 0 0 3 24 5 0 1 13 16 1 0 0 0 0 67 315 209 67 27 495 717 723 491 452 213 75 27 3 2 0 0 1 0 0 0 0 0 0 0 0 0 0 0 0 0 0 0
2 0 1 0 0 0 5 4 0 0 0 11 4 0 0 0 89 343 183 178 61 291 843 845 691 360 247 142 81 15 0 0 0 0 0 0 0 0 0 0 0 0 0 0 0 0 0 0 0
0 0 0 0 0 0 8 0 0 0 0 9 2 0 0 0 88 180 630 522 489 435 722 914 797 479 282 102 62 17 12 1 0 0 0 0 0 0 0 0 0 0 0 0 0 1 8 9 0
0 0 0 0 0 0 5 0 1 0 0 0 0 0 0 0 140 206 396 312 185 512 741 776 595 551 300 121 63 17 0 0 0 0 0 0 0 0 0 0 0 0 2 6 9 12 24 30 15
0 0 0 0 2 0 2 0 1 3 11 0 0 0 0 0 166 255 304 359 209 394 819 942 598 620 353 150 49 8 0 0 0 0 4 11 21 40 48 26 23 20 23 24 23 41 23 24 2
0 0 0 0 0 1 4 0 0 0 0 0 0 0 0 2 0 42 414 430 333 576 779 808 817 635 349 214 114 53 20 0 0 0 0 0 11 34 66 97 79 59 69 63 39 33 39 8 0
0 0 0 0 0 1 0 0 3 0 0 0 0 0 0 0 0 22 415 423 237 257 627 830 802 684 369 282 219 166 90 5 19 19 0 0 0 0 7 14 22 60 65 42 29 21 11 0 0
0 0 0 0 5 3 9 1 5 1 3 0 0 0 0 1 0 0 289 252 147 214 354 783 853 727 477 395 232 171 118 81 46 45 25 2 0 0 2 2 3 9 6 10 2 11 9 3 1
0 0 1 13 0 0 2 13 6 3 0 0 0 0 0 1 0 0 88 217 128 8 130 358 404 220 379 234 214 191 232 229 177 167 121 82 20 0 0 0 0 0 0 0 0 0 0 17 9
0 0 0 3 0 0 0 6 0 3 0 3 1 0 3 0 0 0 0 77 103 193 177 130 71 34 24 142 207 143 140 172 234 185 169 92 16 0 0 0 0 6 40 17 9 1 21 31 26
0 1 0 0 0 0 0 0 0 0 0 0 0 1 0 0 0 0 0 0 2 113 205 167 10 41 32 35 101 76 20 34 176 177 154 103 65 33 42 19 39 73 12 2 2 63 60 53 47
0 0 0 0 0 0 0 0 0 0 1 0 0 9 0 0 0 0 0 0 0 63 152 127 170 122 56 11 0 18 80 53 84 129 85 14 29 62 89 126 109 121 20 51 100 92 90 67 24
0 0 0 0 0 1 0 0 0 0 0 0 0 0 0 0 0 0 0 0 0 38 76 25 119 80 53 26 58 4 90 74 42 83 73 76 89 68 90 128 63 49 23 6 11 7 1 0 0
0 0 0 0 0 0 0 0 0 0 0 0 0 0 0 0 0 0 0 0 0 17 103 130 121 96 121 91 77 49 28 55 64 106 48 32 24 44 46 0 0 0 0 0 0 0 0 0 0
0 0 0 0 0 0 0 0 0 0 0 0 0 0 0 0 0 0 0 0 0 0 32 101 111 121 66 32 39 28 34 28 22 11 1 9 1 0 0 0 0 0 0 0 0 0 0 0 0
0 1 0 0 0 0 0 0 0 0 0 0 0 0 0 0 0 0 0 0 0 0 4 10 37 37 9 0 6 4 11 0 0 0 0 0 0 0 0 0 0 0 0 0 0 0 0 0 0
0 0 0 0 0 0 0 0 0 0 0 0 0 0 0 0 0 0 0 0 0 0 6 13 8 27 12 0 0 0 0 0 0 0 0 0 0 0 0 0 0 0 0 0 0 0 0 0 0
CIN
-0 -0 -0 -0 -0 -0 -0 -0 -0 -0 -0 -0 -0 -0 -0 -133 -0 -0 -383 -300 -264 -181 -65 -51 -66 -77 -100 -112 -64 -60 -73 -0 -2 -0 -0 -0 -3 -75 -8 -0 -1 -1 -11 -102 -88 -16 -0 -0 -0
-0 -0 -0 -0 -0 -0 -0 -0 -0 -0 -0 -0 -0 -0 -0 -0 -170 -215 -234 -222 -176 -130 -69 -44 -83 -117 -131 -136 -8 -11 -5 -0 -0 -1 -13 -1 -1 -171 -0 -0 -0 -1 -1 -95 -98 -136 -0 -0 -0
-0 -0 -0 -0 -0 -0 -0 -0 -0 -0 -0 -0 -0 -85 -94 -83 -126 -171 -159 -143 -115 -82 -46 -52 -129 -133 -179 -71 -0 -1 -0 -0 -2 -11 -19 -6 -112 -0 -0 -0 -1 -2 -118 -119 -173 -188 -0 -0 -0
-4 -3 -0 -0 -0 -4 -1 -0 -0 -0 -0 -0 -0 -0 -135 -87 -113 -150 -99 -71 -74 -58 -41 -62 -109 -154 -200 -16 -0 -1 -0 -0 -8 -23 -42 -131 -165 -0 -0 -1 -3 -124 -142 -149 -173 -0 -0 -0 -0
-8 -9 -0 -0 -0 -0 -13 -41 -0 -0 -0 -0 -0 -0 -0 -157 -139 -107 -67 -43 -72 -59 -28 -53 -96 -151 -195 -25 -0 -0 -0 -1 -11 -33 -162 -302 -0 -0 -0 -0 -4 -137 -0 -46 -173 -0 -0 -0 -0
-0 -1 -0 -0 -0 -0 -0 -0 -0 -0 -0 -0 -0 -47 -52 -102 -67 -71 -37 -32 -59 -43 -34 -37 -88 -141 -188 -73 -1 -1 -0 -1 -13 -117 -239 -0 -0 -0 -0 -0 -146 -132 -0 -63 -184 -0 -0 -0 -0
-0 -0 -0 -0 -0 -0 -0 -113 -102 -0 -0 -0 -1 -47 -87 -103 -117 -91 -29 -10 -32 -16 -20 -32 -80 -140 -170 -197 -32 -12 -11 -14 -69 -196 -310 -0 -0 -0 -0 -183 -113 -39 -0 -0 -140 -0 -0 -0 -0
-2 -0 -0 -0 -0 -0 -0 -0 -113 -0 -0 -0 -140 -0 -38 -100 -33 -119 -32 -0 -11 -21 -8 -47 -85 -138 -179 -264 -191 -78 -73 -83 -206 -6 -2 -1 -1 -0 -0 -186 -83 -41 -54 -0 -0 -0 -0 -0 -0
-3 -0 -0 -0 -0 -0 -0 -0 -0 -0 -0 -0 -6 -61 -38 -84 -42 -85 -20 -0 -5 -5 -25 -31 -79 -106 -157 -253 -0 -159 -161 -0 -6 -0 -0 -1 -0 -0 -0 -1 -7 -54 -68 -0 -0 -0 -0 -0 -0
-2 -0 -0 -0 -0 -0 -0 -0 -3 -0 -3 -92 -0 -123 -45 -8 -81 -55 -45 -0 -5 -0 -13 -43 -71 -133 -149 -225 -0 -0 -0 -0 -0 -0 -0 -0 -0 -0 -0 -2 -4 -4 -75 -0 -0 -0 -0 -0 -0
-3 -0 -0 -0 -0 -0 -10 -6 -5 -11 -25 -1 -79 -20 -7 -24 -57 -65 -19 -163 -1 -0 -2 -19 -50 -118 -161 -175 -163 -0 -1 -0 -0 -0 -0 -0 -0 -0 -0 -0 -0 -0 -0 -0 -0 -0 -0 -0 -0
-0 -0 -0 -0 -0 -3 -5 -6 -10 -3 -0 -0 -0 -0 -0 -2 -0 -31 -62 -0 -0 -0 -0 -0 -0 -81 -85 -54 -207 -0 -0 -0 -0 -0 -0 -0 -0 -0 -0 -0 -0 -0 -0 -0 -0 -0 -0 -0 -0
-0 -0 -0 -0 -2 -0 -5 -8 -39 -4 -85 -0 -0 -0 -0 -0 -0 -11 -119 -22 -0 -3 -0 -0 -3 -12 -75 -98 -137 -29 -0 -0 -0 -0 -0 -0 -0 -0 -0 -0 -0 -0 -0 -0 -0 -0 -0 -0 -0
-0 -0 -1 -0 -2 -3 -3 -2 -13 -10 -64 -19 -0 -0 -0 -0 -15 -24 -16 -81 -34 -9 -1 -0 -31 -6 -44 -127 -159 -61 -0 -0 -0 -0 -0 -0 -0 -0 -0 -0 -0 -0 -0 -0 -0 -0 -0 -0 -0
-3 -0 -0 -0 -0 -0 -1 -10 -0 -0 -0 -26 -16 -0 -0 -0 -12 -4 -94 -94 -123 -34 -10 -1 -50 -72 -47 -88 -76 -107 -0 -0 -0 -0 -0 -0 -0 -0 -0 -0 -0 -0 -0 -0 -0 -0 -0 -0 -0
-0 -0 -0 -0 -0 -0 -7 -0 -0 -0 -0 -16 -86 -0 -0 -0 -21 -38 -1 -24 -9 -3 -23 -3 -23 -108 -57 -94 -161 -141 -132 -0 -0 -0 -0 -0 -0 -0 -0 -0 -0 -0 -0 -0 -0 -46 -201 -186 -0
-0 -0 -0 -0 -0 -22 -0 -0 -3 -0 -14 -3 -0 -0 -0 -0 -23 -9 -10 -7 -21 -8 -1 -0 -79 -90 -67 -87 -132 -210 -0 -0 -0 -0 -0 -0 -0 -0 -0 -0 -0 -0 -130 -270 -260 -231 -178 -147 -156
-0 -0 -0 -0 -10 -32 -0 -0 -3 -21 -13 -0 -0 -0 -0 -0 -16 -9 -4 -24 -55 -22 -5 -22 -162 -125 -91 -76 -87 -109 -0 -0 -0 -0 -47 -196 -216 -202 -193 -230 -244 -240 -232 -222 -212 -168 -191 -151 -100
-0 -0 -0 -0 -0 -0 -0 -0 -0 -0 -4 -0 -0 -0 -0 -0 -0 -138 -18 -11 -24 -12 -7 -22 -49 -46 -67 -76 -90 -124 -226 -0 -0 -0 -0 -0 -247 -204 -168 -156 -156 -182 -159 -145 -165 -151 -106 -64 -0
-0 -0 -0 -0 -0 -7 -0 -0 -20 -0 -0 -0 -0 -0 -0 -0 -0 -133 -65 -30 -38 -12 -22 -27 -36 -25 -2 -13 -30 -69 -152 -258 -224 -217 -0 -0 -0 -0 -252 -238 -210 -167 -162 -142 -122 -101 -93 -0 -0
-0 -0 -0 -0 -0 -3 -33 -7 -0 -0 -0 -0 -0 -0 -0 -0 -0 -0 -63 -68 -27 -11 -9 -0 -0 -0 -0 -31 -57 -71 -98 -88 -96 -117 -158 -130 -0 -0 -290 -128 -230 -183 -75 -141 -67 -106 -76 -72 -68
-0 -0 -0 -5 -0 -1 -29 -3 -5 -0 -0 -0 -0 -0 -0 -0 -0 -0 -101 -45 -57 -38 -29 -6 -5 -25 -1 -34 -47 -77 -67 -36 -64 -118 -169 -168 -192 -0 -0 -0 -0 -0 -0 -0 -0 -0 -0 -86 -92
-0 -0 -0 -1 -0 -0 -0 -19 -0 -0 -0 -0 -0 -0 -0 -0 -0 -0 -0 -95 -65 -1 -6 -0 -0 -41 -17 -3 -29 -72 -74 -84 -87 -76 -66 -108 -144 -50 -0 -9 -6 -160 -89 -62 -17 -11 -108 -50 -60
-0 -0 -0 -0 -0 -0 -0 -0 -0 -0 -0 -0 -0 -0 -0 -0 -0 -0 -0 -0 -14 -62 -23 -21 -59 -54 -68 -17 -4 -34 -85 -64 -48 -47 -75 -93 -105 -101 -76 -114 -80 -55 -109 -118 -15 -21 -13 -27 -18
-0 -0 -0 -0 -0 -0 -0 -0 -0 -0 -5 -0 -0 -1 -0 -0 -0 -0 -0 -0 -0 -110 -46 -29 -18 -10 -10 -82 -0 -27 -22 -1 -19 -57 -93 -128 -92 -68 -90 -68 -32 -46 -115 -81 -34 -18 -23 -29 -84
-0 -0 -0 -0 -0 -16 -0 -0 -0 -0 -0 -0 -0 -0 -0 -0 -0 -0 -0 -0 -0 -113 -71 -87 -25 -49 -52 -36 -4 -0 -0 -12 -10 -10 -69 -30 -49 -65 -71 -57 -55 -52 -79 -63 -48 -63 -6 -0 -0
-0 -0 -0 -0 -0 -0 -0 -0 -0 -0 -0 -0 -0 -0 -0 -0 -0 -0 -0 -0 -0 -138 -89 -93 -88 -74 -60 -36 -28 -20 -39 -13 -24 -41 -62 -89 -134 -121 -113 -0 -0 -0 -0 -0 -0 -0 -0 -0 -0
-0 -0 -0 -0 -0 -0 -0 -0 -0 -0 -0 -0 -0 -0 -0 -0 -0 -0 -0 -0 -0 -0 -155 -146 -131 -96 -116 -115 -94 -108 -95 -102 -141 -82 -174 -198 -142 -0 -0 -0 -0 -0 -0 -0 -0 -0 -0 -0 -0
-0 -0 -0 -0 -0 -0 -0 -0 -0 -0 -0 -0 -0 -0 -0 -0 -0 -0 -0 -0 -0 -0 -152 -175 -152 -153 -182 -7 -175 -119 -190 -0 -0 -0 -0 -0 -0 -0 -0 -0 -0 -0 -0 -0 -0 -0 -0 -0 -0
-0 -0 -0 -0 -0 -0 -0 -0 -0 -0 -0 -0 -0 -0 -0 -0 -0 -0 -0 -0 -0 -0 -236 -196 -205 -187 -220 -0 -0 -0 -0 -0 -0 -0 -0 -0 -0 -0 -0 -0 -0 -0 -0 -0 -0 -0 -0 -0 -0
Wind_Speed
15 12 10 10 19 20 30 25 26 30 38 36 27 30 28 28 27 28 18 14 10 14 13 12 10 9 7 6 5 8 11 14 16 18 19 20 19 19 19 19 20 22 24 24 24 25 25 25 24
14 11 10 15 24 29 31 24 27 33 33 34 32 29 30 32 26 23 14 13 12 14 13 12 10 8 6 5 5 8 10 13 17 19 20 19 18 18 19 18 21 22 22 23 23 23 24 23 22
14 12 16 21 28 40 29 25 28 43 38 34 36 35 33 28 25 24 20 11 14 14 13 12 10 8 6 6 6 9 12 14 16 18 19 19 18 19 19 20 20 21 21 22 23 23 23 22 21
14 14 19 28 33 29 29 26 35 45 50 38 36 39 35 31 23 18 15 14 15 15 13 13 11 8 7 7 6 9 11 13 15 16 16 16 18 18 19 19 20 20 21 21 23 23 22 21 20
13 17 28 32 33 29 28 29 37 41 47 46 36 45 41 33 22 17 14 18 17 17 14 13 11 9 8 8 7 9 12 14 15 14 12 14 16 18 18 19 19 19 20 21 23 22 22 21 20
19 20 31 35 32 31 32 33 38 47 43 47 39 39 41 30 28 22 15 20 20 18 16 14 12 10 9 10 8 9 11 13 13 12 12 13 15 17 18 19 18 18 19 21 22 21 21 20 19
22 26 32 33 32 33 34 36 42 46 46 47 42 42 35 34 27 24 17 21 23 20 18 16 13 11 10 10 9 9 9 12 11 11 12 12 14 16 18 18 18 18 19 20 20 20 20 19 19
19 25 31 28 29 35 38 41 39 44 51 38 34 47 41 35 30 23 21 24 23 24 20 18 14 12 10 10 10 9 9 8 9 10 10 12 15 16 17 17 18 18 18 18 18 18 18 18 18
15 25 29 26 26 44 33 43 43 43 47 45 37 39 36 29 25 26 27 28 27 26 23 19 17 14 12 10 10 10 9 8 8 8 10 13 14 15 17 15 17 16 15 15 16 17 17 16 16
17 23 22 23 36 46 39 42 42 51 51 49 42 39 38 29 30 41 37 30 31 30 26 21 19 16 13 11 11 9 9 8 8 8 11 9 11 12 14 14 14 13 12 12 14 15 15 14 14
16 22 20 31 39 40 39 41 44 46 57 52 42 34 36 33 38 44 44 26 33 31 28 23 20 18 16 13 11 10 9 9 8 9 10 7 8 10 10 10 11 12 12 11 11 11 12 13 13
22 19 24 43 41 41 42 40 43 50 56 55 46 36 36 41 40 42 42 28 38 35 28 24 22 20 18 15 13 11 10 10 9 9 9 8 7 8 8 8 9 10 9 10 10 11 11 12 13
20 24 35 38 37 45 45 44 43 48 51 54 51 43 43 42 51 30 37 28 32 33 30 27 23 22 20 17 15 12 11 11 10 10 9 8 8 8 7 7 7 6 7 8 8 9 10 11 12
25 32 38 38 40 37 44 51 42 39 45 48 49 47 45 45 53 32 40 40 38 38 35 29 27 25 22 20 16 15 13 12 11 10 9 9 7 7 6 5 4 4 5 6 7 8 9 11 13
28 31 37 41 37 37 39 49 55 45 39 44 51 48 47 48 50 34 35 30 27 26 33 36 30 28 25 23 20 18 16 14 13 11 10 9 8 7 5 3 2 2 4 6 8 9 10 12 14
24 26 32 30 32 31 34 51 45 45 42 47 47 47 47 49 50 49 27 27 27 23 24 32 30 28 29 28 24 23 19 16 14 13 11 9 7 6 4 3 1 3 5 7 8 9 11 14 15
20 27 34 35 33 28 39 42 36 36 40 43 42 41 45 48 48 40 40 29 25 24 24 28 27 31 29 28 27 23 21 18 17 15 13 10 9 6 5 4 3 3 5 7 8 10 12 14 16
20 25 30 31 26 31 39 44 30 32 38 41 37 42 40 45 48 42 36 32 37 25 26 22 24 27 27 27 24 21 21 20 18 16 14 11 10 8 6 6 5 4 6 7 8 11 13 16 17
30 31 32 35 34 35 40 47 39 34 32 39 38 38 41 43 42 39 36 33 29 24 25 25 37 32 26 19 24 27 23 21 17 16 14 12 11 9 7 9 9 8 8 9 11 14 15 17 18
26 28 30 32 29 35 42 41 35 34 35 35 42 42 41 44 44 40 36 33 37 34 29 26 27 27 22 30 29 29 23 21 19 17 16 14 12 10 9 8 9 8 10 12 12 13 16 16 16
22 24 25 25 25 30 36 34 33 31 27 30 37 38 42 46 44 40 36 41 35 31 30 29 28 28 28 33 27 24 19 18 19 21 19 17 15 14 11 9 10 12 14 13 13 12 13 15 15
17 19 25 25 23 29 30 36 28 30 27 26 31 37 42 45 39 37 35 33 37 38 36 33 27 28 28 27 25 24 22 22 27 26 22 20 18 19 15 13 14 14 14 14 13 11 12 11 18
14 15 19 21 16 19 25 25 23 26 27 30 32 36 40 38 34 33 33 34 27 31 29 26 23 32 41 27 26 25 24 27 26 21 17 20 17 21 18 14 11 7 9 10 14 13 9 13 16
17 14 17 18 17 18 18 25 20 24 24 27 23 27 31 27 27 26 26 25 29 29 27 23 22 23 40 40 26 30 32 29 21 18 15 16 20 20 19 13 9 6 9 10 7 8 3 6 11
15 16 22 24 21 18 13 13 16 21 24 21 19 25 24 23 23 21 21 23 27 29 24 18 15 15 16 26 50 38 35 35 30 21 23 25 23 19 12 9 8 3 4 6 7 7 9 11 12
11 13 21 30 25 21 12 16 13 12 18 23 24 15 23 25 19 16 15 15 18 21 20 17 14 14 16 22 29 7 13 33 35 34 35 27 28 14 3 2 3 4 6 8 10 11 12 12 13
15 10 10 18 17 18 15 11 12 12 12 15 18 15 23 20 18 16 12 14 17 16 14 10 7 7 9 12 12 1 5 7 10 4 3 9 2 6 4 3 4 6 7 9 11 13 13 15 17
13 10 12 13 23 22 17 12 13 12 10 9 11 15 20 18 18 17 14 13 14 16 14 12 8 6 6 6 7 7 5 1 3 4 2 4 5 3 3 3 5 7 9 11 12 13 15 17 18
7 7 8 9 15 23 20 13 12 10 10 9 8 10 14 18 19 18 16 16 14 12 13 13 10 7 6 6 6 5 3 2 2 2 2 3 3 3 3 5 6 8 10 12 13 15 16 16 17
8 7 7 10 13 13 13 11 12 9 8 6 6 8 8 10 21 22 20 18 16 14 12 10 10 9 7 7 7 7 7 6 6 5 4 3 4 5 5 6 7 9 12 13 14 15 16 17 17
Wind_Direction
339 335 325 304 275 267 235 256 262 252 246 246 247 241 244 248 244 250 274 247 195 166 161 157 149 136 129 120 109 104 106 106 106 108 107 104 98 92 90 85 81 81 84 77 75 72 70 66 60
336 331 319 291 262 246 239 251 246 250 251 251 246 243 244 246 252 259 264 246 186 170 163 160 157 148 142 129 118 111 109 108 109 109 109 104 97 95 92 85 88 86 79 78 75 72 73 67 62
330 322 294 281 262 239 254 250 247 249 251 250 246 248 242 247 254 251 263 227 192 181 170 167 158 156 151 136 123 114 112 111 110 109 106 100 98 97 92 92 89 86 79 77 76 74 71 66 61
320 312 295 273 256 255 254 257 257 250 245 251 249 248 246 241 254 255 249 217 195 192 185 172 164 160 157 153 132 118 115 113 112 108 103 98 99 96 95 94 92 86 81 78 81 76 70 65 60
312 303 284 276 264 260 261 262 255 252 246 243 250 245 245 244 247 251 240 216 203 194 188 179 174 166 161 157 139 122 118 116 114 109 102 100 99 99 98 97 93 86 81 80 81 76 70 66 61
300 294 282 273 270 264 260 260 255 248 246 243 249 248 245 243 238 242 231 214 209 196 191 188 184 175 164 158 148 132 124 120 117 111 107 103 101 101 102 101 93 86 81 80 84 75 69 64 60
293 287 280 277 277 266 262 255 248 246 245 243 246 243 249 242 237 232 226 215 209 202 199 198 194 182 169 162 155 145 135 126 120 115 111 105 104 104 106 100 94 87 82 79 80 75 69 64 58
299 292 282 282 271 264 262 254 251 245 241 248 249 239 242 244 234 221 224 212 206 205 202 201 195 187 177 167 165 158 153 143 128 121 114 110 108 107 107 101 98 91 85 78 75 72 70 62 56
306 288 282 264 274 263 263 254 247 245 242 243 249 246 250 245 228 222 223 211 207 206 204 203 199 197 187 174 168 164 161 161 139 132 122 116 111 108 109 103 101 93 83 76 71 68 65 60 53
292 290 277 268 269 259 258 253 246 240 238 240 245 248 249 239 224 223 223 213 204 203 204 203 201 198 189 185 171 167 166 164 159 146 132 125 116 110 108 104 99 91 81 71 67 65 60 47 39
306 279 273 280 267 262 257 253 246 239 233 233 235 249 246 237 229 223 220 221 203 204 204 205 201 201 194 189 186 183 183 179 169 154 143 140 128 116 111 104 98 93 84 68 59 51 42 39 32
300 291 288 266 265 259 253 252 245 238 234 231 237 250 252 238 230 222 222 208 207 205 204 205 206 205 203 197 192 184 179 182 177 175 158 153 145 131 118 108 100 91 79 70 58 48 43 33 27
293 294 283 272 270 255 250 247 247 240 234 232 236 248 247 246 229 209 216 220 199 206 208 207 205 207 206 203 202 192 188 188 183 181 177 165 152 139 126 111 99 81 67 54 44 38 34 26 17
303 291 276 270 264 259 247 240 245 242 237 234 235 241 247 247 231 213 219 217 213 216 210 208 208 210 210 209 205 203 200 197 192 188 184 166 161 144 133 119 97 68 43 28 21 16 12 5 3
298 294 279 262 264 256 248 238 230 242 241 233 232 240 247 244 236 234 216 217 209 187 211 210 208 210 212 212 210 210 209 203 201 196 189 182 167 157 151 139 101 31 17 11 357 354 351 349 348
304 292 281 274 258 256 239 230 236 235 238 234 233 242 245 240 235 228 214 207 206 199 189 211 212 209 214 214 213 216 216 211 210 206 202 200 192 184 192 225 282 334 339 347 351 349 344 343 341
304 284 270 267 253 252 229 226 237 233 232 230 231 242 244 238 234 232 226 207 190 196 202 215 205 211 213 215 216 217 220 219 217 217 216 209 211 207 219 249 288 333 340 337 342 340 339 338 338
304 282 267 256 252 238 226 222 235 227 226 225 229 239 245 238 231 229 226 219 219 212 214 211 192 211 211 215 220 221 222 223 222 223 223 217 224 226 243 265 285 309 324 331 337 336 335 335 338
257 251 249 248 249 232 219 214 225 229 231 222 231 241 242 239 236 234 225 225 214 211 212 212 215 218 217 205 216 221 220 221 223 227 224 222 228 233 245 272 283 293 305 318 322 321 326 330 334
237 244 246 251 226 213 205 213 225 224 230 232 235 240 243 239 231 232 230 226 226 216 217 220 220 222 218 221 223 227 227 230 229 230 231 233 238 240 253 269 283 293 303 309 315 322 326 332 337
228 230 227 206 208 210 203 207 209 222 231 223 235 243 242 235 225 227 227 225 231 229 228 226 229 228 223 226 226 228 228 234 231 232 235 239 244 253 260 272 287 295 301 308 314 322 326 327 341
227 217 203 204 200 199 204 199 210 210 225 240 243 244 237 230 220 225 224 224 226 226 237 232 232 233 230 229 226 223 220 227 233 234 238 242 247 255 266 276 287 294 303 313 317 321 324 333 328
186 226 208 204 200 195 203 207 219 215 220 229 244 237 232 223 215 223 226 229 232 231 235 234 239 238 235 236 232 231 234 233 233 238 241 244 253 259 266 272 285 307 316 334 318 317 339 325 336
218 200 207 210 207 187 202 201 208 217 228 218 238 227 227 211 212 222 228 235 240 246 244 241 238 238 225 241 232 240 239 239 236 236 234 247 258 267 266 275 282 303 304 336 336 332 31 353 344
231 216 191 194 196 191 209 201 221 239 238 239 229 223 217 210 214 225 234 239 243 241 241 237 229 229 235 247 237 250 239 246 251 242 247 257 258 266 262 279 290 335 8 28 23 15 1 356 351
222 225 207 194 198 198 222 204 237 270 261 242 234 230 216 218 211 221 230 235 236 235 239 241 242 243 248 250 251 277 232 253 254 247 223 244 240 267 265 355 60 45 20 12 13 10 6 6 0
208 221 237 204 212 203 214 228 244 289 258 250 237 237 225 222 221 231 244 244 240 243 244 256 258 253 253 258 256 246 195 180 162 217 243 270 289 102 81 33 2 359 359 3 0 359 359 353 345
198 224 221 219 200 198 207 221 247 277 279 272 256 233 232 223 231 241 255 261 261 256 256 263 266 262 262 265 263 268 268 269 294 288 60 55 66 38 20 9 348 350 353 354 356 355 354 347 344
264 281 262 241 223 207 209 230 263 280 293 301 257 243 234 222 237 247 255 265 273 264 256 256 261 265 279 283 281 282 292 307 325 324 7 26 18 354 353 338 339 344 350 352 355 358 359 353 352
237 304 278 229 213 216 214 231 305 288 282 310 314 265 246 248 250 249 260 267 268 270 267 267 267 272 281 286 287 288 293 293 291 290 301 310 321 329 332 332 337 343 346 349 353 354 354 350 349